PARS 1

Last updated on Wed Jul 16 2025 00:02:31 GMT+0000 (Coordinated Universal Time)

1 59065U 24039Q 25196.58075955 .00006756 00000+0 18855-3 0 9993 2 59065 97.4418 165.0350 0009512 243.5559 116.4710 15.37031148 76792
UTC large
Height (km)
Speed (km/s)
/
Latitude / Longitude
Inclination (degrees)
Orbital Period (minutes)
Azimuth
Elevation
Range (km)
Doppler Factor

Next 0 passes for location: London (51.5072 / 0.1276)

Sorry there are no passes over London.